Bangor, ME

11:57 PM EDT on July 21, 2017 (GMT -0400)
Bangor International

Weather History for KBGR - November, 2010

Change the Weather History Date:

Wednesday, November 17, 2010

  Actual Average Record
Temperature  
Mean Temperature 52 °F 36 °F  
Max Temperature 58 °F 45 °F 64 °F (2006)
Min Temperature 46 °F 28 °F 8 °F (1933)
Degree Days  
Heating Degree Days 13 28  
Month to date heating degree days 382 436  
Since 1 July heating degree days 1050 1262  
Cooling Degree Days 0 0  
Month to date cooling degree days 0 0  
Year to date cooling degree days 537 318  
Growing Degree Days 2 (Base 50)    
Moisture  
Dew Point 48 °F    
Average Humidity 84    
Maximum Humidity 93    
Minimum Humidity 74    
Precipitation  
Precipitation 0.80 in 0.14 in 1.24 in (2006)
Month to date precipitation 4.28 2.35  
Year to date precipitation 38.57 36.60  
Snow  
Snow 0.00 in 0.10 in 8.00 in (2002)
Month to date snowfall T 0.5  
Since 1 July snowfall T 0.6  
Since 1 September snowfall T 0.6  
Snow Depth 0.00 in    
Sea Level Pressure  
Sea Level Pressure 29.59 in    
Wind  
Wind Speed 9 mph (SE)    
Max Wind Speed 31 mph    
Max Gust Speed 40 mph    
Visibility 6 miles    
Events Rain    
T = Trace of Precipitation, MM = Missing Value Source: NWS Daily Summary

Daily Weather History Graph

Daily Weather History Graph

Search for Another Location

Airport or City:

Trip Planner

Search our weather history database for the weather conditions in past years. The results will help you decide how hot, cold, wet, or windy it might be!

Date:

Astronomy

Nov. 17, 2010 Rise Set
Actual Time 6:35 AM EST 4:05 PM EST
Civil Twilight 6:03 AM EST 4:36 PM EST
Nautical Twilight 5:27 AM EST 5:12 PM EST
Astronomical Twilight 4:52 AM EST 5:47 PM EST
Moon 1:42 PM EST (11/17) 2:22 AM EST (11/17)
Length of Visible Light 10h 33m
Length of Day
9h 29m
Waxing Gibbous, 85% of the Moon is Illuminated
Nov 17
Waxing Gibbous
Nov 21
Full
Nov 28
Last Quarter
Dec 5
New
Dec 13
First Quarter

Hourly Weather History & Observations

Time (EST) Temp. Windchill Dew Point Humidity Pressure Visibility Wind Dir Wind Speed Gust Speed Precip Events Conditions
12:53 AM 46.0 °F 44.8 °F 45.0 °F 96% 30.07 in 3.0 mi SE 3.5 mph - 0.00 in   Overcast
1:34 AM 46.4 °F 45.2 °F 44.6 °F 93% 30.06 in 2.0 mi SE 3.5 mph - N/A   Overcast
1:53 AM 46.0 °F 42.5 °F 45.0 °F 96% 30.04 in 2.0 mi ESE 6.9 mph - N/A   Overcast
2:09 AM 46.4 °F 42.4 °F 44.6 °F 93% 30.02 in 2.0 mi ENE 8.1 mph - N/A   Overcast
2:53 AM 46.0 °F 44.8 °F 45.0 °F 96% 30.01 in 3.0 mi ENE 3.5 mph - N/A   Overcast
3:53 AM 46.0 °F 42.5 °F 44.1 °F 93% 29.97 in 6.0 mi ENE 6.9 mph - 0.00 in   Overcast
4:12 AM 46.4 °F 43.5 °F 44.6 °F 93% 29.95 in 6.0 mi East 5.8 mph - 0.01 in Rain Light Rain
4:53 AM 46.0 °F 41.0 °F 43.0 °F 89% 29.90 in 6.0 mi East 10.4 mph - 0.01 in Rain Light Rain
5:01 AM 46.4 °F 42.4 °F 42.8 °F 87% 29.88 in 6.0 mi East 8.1 mph - 0.00 in Rain Light Rain
5:53 AM 46.0 °F 41.9 °F 43.0 °F 89% 29.86 in 6.0 mi East 8.1 mph - 0.01 in Rain Light Rain
6:29 AM 46.4 °F 43.5 °F 42.8 °F 87% 29.86 in 10.0 mi East 5.8 mph - 0.01 in Rain Light Rain
6:53 AM 46.0 °F 43.9 °F 44.1 °F 93% 29.85 in 10.0 mi NE 4.6 mph - 0.02 in Rain Light Rain
7:53 AM 46.9 °F - 44.1 °F 90% 29.80 in 6.0 mi East 11.5 mph - 0.02 in Rain Light Rain
8:53 AM 48.9 °F - 46.0 °F 90% 29.70 in 6.0 mi East 19.6 mph 27.6 mph 0.04 in Rain Light Rain
9:36 AM 50.0 °F - 46.4 °F 87% 29.65 in 3.0 mi ESE 17.3 mph 27.6 mph N/A Rain Rain
9:53 AM 50.0 °F - 46.9 °F 89% 29.63 in 3.0 mi ESE 18.4 mph 31.1 mph 0.09 in Rain Rain
10:37 AM 51.8 °F - 48.2 °F 88% 29.54 in 2.5 mi ESE 20.7 mph 31.1 mph 0.16 in Rain Rain
10:53 AM 52.0 °F - 48.9 °F 89% 29.52 in 2.5 mi ESE 23.0 mph 38.0 mph 0.22 in Rain Rain
11:53 AM 54.0 °F - 52.0 °F 93% 29.44 in 2.5 mi SE 21.9 mph 33.4 mph 0.22 in Rain Rain
12:29 PM 55.4 °F - 51.8 °F 88% 29.40 in 1.8 mi SSE 17.3 mph 28.8 mph 0.09 in Rain Light Rain
12:51 PM 55.4 °F - 53.6 °F 94% 29.39 in 2.0 mi SSE 11.5 mph 26.5 mph 0.13 in Rain Rain
12:53 PM 55.9 °F - 54.0 °F 93% 29.39 in 2.0 mi SSE 15.0 mph 26.5 mph 0.13 in Rain Light Rain
1:45 PM 57.2 °F - 55.4 °F 94% 29.37 in 7.0 mi South 10.4 mph - 0.04 in   Mostly Cloudy
1:53 PM 57.0 °F - 55.0 °F 93% 29.37 in 10.0 mi South 11.5 mph - 0.04 in   Mostly Cloudy
2:53 PM 57.0 °F - 55.0 °F 93% 29.36 in 10.0 mi South 12.7 mph - N/A   Mostly Cloudy
3:32 PM 55.4 °F - 53.6 °F 94% 29.35 in 5.0 mi South 11.5 mph - N/A   Overcast
3:53 PM 55.0 °F - 54.0 °F 96% 29.35 in 4.0 mi South 9.2 mph - 0.00 in   Light Drizzle
4:13 PM 55.4 °F - 53.6 °F 94% 29.34 in 2.5 mi South 11.5 mph - 0.00 in   Light Drizzle
4:40 PM 55.4 °F - 53.6 °F 94% 29.33 in 6.0 mi South 10.4 mph - 0.00 in   Light Drizzle
4:50 PM 53.6 °F - 53.6 °F 100% 29.33 in 8.0 mi South 13.8 mph - 0.00 in   Overcast
4:53 PM 55.0 °F - 53.1 °F 93% 29.34 in 8.0 mi South 11.5 mph - 0.00 in   Mostly Cloudy
5:53 PM 53.1 °F - 52.0 °F 96% 29.34 in 6.0 mi South 11.5 mph - N/A   Overcast
6:42 PM 53.6 °F - 51.8 °F 94% 29.33 in 7.0 mi South 9.2 mph - N/A   Overcast
6:53 PM 53.1 °F - 51.1 °F 93% 29.33 in 7.0 mi South 9.2 mph - N/A   Mostly Cloudy
7:53 PM 53.1 °F - 46.9 °F 80% 29.34 in 10.0 mi SSW 10.4 mph - N/A   Overcast
8:53 PM 52.0 °F - 46.0 °F 80% 29.34 in 10.0 mi SW 10.4 mph - N/A   Overcast
9:53 PM 51.1 °F - 44.1 °F 77% 29.35 in 10.0 mi SW 12.7 mph 20.7 mph N/A   Mostly Cloudy
10:53 PM 50.0 °F - 42.1 °F 74% 29.36 in 10.0 mi SSW 11.5 mph 18.4 mph N/A   Overcast
11:53 PM 48.9 °F - 39.9 °F 71% 29.38 in 10.0 mi SW 9.2 mph 17.3 mph N/A   Overcast